Terug naar catalogus

STARLINK-30315

ActiefCommunicatieVLEO
NORAD 57708·PAYLOAD·🇺🇸 United States

Gelanceerd Aug 27, 2023 vanaf Cape Canaveral Space Force Station

Loading…

Volgende Passages (komende 24 uur)

TLE

VersSource: CelesTrak SupGP

Epoch: Sep 15, 2026, 02:29 UTC

1 57708C 23129L   26258.10395833  .00059837  00000+0  21668-2 0  2583
2 57708  43.0002 128.1391 0001524 274.4503  14.8061 15.27555491    15

Volg STARLINK-30315 in realtime met AllMySat

Download on the App Store